Location: Fort Worth, Tx
(32.7431°N, 97.3695°W)
Time: 05:01:07
(UTC-05:00)

Explorer 7 - Visible Passes

Search period start: 05 March 2024 00:00
Search period end: 15 March 2024 01:00
Orbit: 470 x 631 km, 50.3° (Epoch: 04 March)

Date Brightness Start Highest point End Pass type
(mag) Time Alt. Az. Time Alt. Az. Time Alt. Az.
05 Mar 9.8 05:17:32 11° NE 05:17:32 11° NE 05:17:43 10° NE visible
05 Mar 8.6 06:53:12 13° NW 06:54:13 14° NNW 06:56:13 10° N visible
06 Mar 8.9 06:48:13 10° NW 06:49:05 11° NNW 06:50:09 10° N visible
